Flag Weather past 2 weeks in Leutkirch im Allgäu, Baden-Württemberg, Germany

Now
45 °F

Passing clouds.


Feels Like: 45 °F
Forecast: 41 / 60 °F
Wind: 2 mph from Southeast

Location: Kempten

Current Time: Oct 31, 2014 at 9:31:27 AM

Latest Report: Oct 31, 2014 at 9:00 AM


Visibility: 31 mi

Pressure: 30.35 "Hg

Humidity: 83%

Dew point: 40 °F

Location of Leutkirch im AllgäuLocation

Historic Weather in Leutkirch im Allgäu — Graph

°F

Leutkirch im Allgäu temperature yesterday

Maximum temperature yesterday: 59 °F (at 3:00 PM)
Minimum temperature yesterday: 37 °F (at 3:00 AM)
Average temperature yesterday: 45 °F

Past Weeks' High & Low Weather Summary

 TemperatureHumidityPressure
High72 °F (Oct 19, 3:00 PM)99% (Oct 18, 3:00 AM)30.41 "Hg (Oct 18, 3:00 AM)
Low33 °F (Oct 27, 5:00 AM)38% (Oct 19, 3:00 PM)29.69 "Hg (Oct 21, 8:00 PM)
Average48 °F84%30.16 "Hg
* Reported Oct 16 9:00 AM — Oct 31 8:00 AM, Leutkirch im Allgäu, Weather by CustomWeather, © 2014

Note: Actual official high and low records may vary slightly from our data, if they occured in-between our weather recording intervals... More about our weather records

Advertising

Leutkirch im Allgäu weather history for previous 24 hours

 ConditionsComfort  
Time TempWeatherWind HumidityBarometerVisibility
8:00 AM
Oct 31
39 °FSunny.2 mph94%30.39 "Hg18 mi
7:00 AM38 °FOvercast.3 mph97%30.38 "Hg14 mi
6:00 AM37 °FOvercast.2 mph97%30.38 "Hg9 mi
5:00 AM37 °FOvercast.3 mph97%30.39 "Hg9 mi
3:00 AM35 °FClear.3 mph97%30.41 "Hg7 mi
2:00 AM36 °FClear.2 mph97%30.40 "Hg9 mi
1:00 AM36 °FClear.2 mph97%30.41 "Hg6 mi
12:00 AM38 °FClear.2 mph97%30.40 "Hg6 mi
11:00 PM
Oct 30
39 °FFog.2 mph97%30.39 "Hg4 mi
9:00 PM41 °FPassing clouds.2 mph94%30.36 "Hg6 mi
8:00 PM42 °FPassing clouds.2 mph93%30.35 "Hg8 mi
7:00 PM44 °FPassing clouds.2 mph91%30.34 "Hg8 mi
6:00 PM49 °FOvercast.1 mph82%30.31 "Hg13 mi
5:00 PM54 °FOvercast.1 mph67%30.28 "Hg19 mi
3:00 PM59 °FOvercast.2 mph51%30.24 "Hg19 mi
2:00 PM55 °FOvercast.2 mph64%30.26 "Hg19 mi
1:00 PM56 °FPartly sunny.1 mph51%30.25 "Hg37 mi
12:00 PM53 °FOvercast.1 mph57%30.27 "Hg31 mi
11:00 AM51 °FOvercast.2 mph66%30.28 "Hg31 mi
9:00 AM42 °FLight rain. Overcast.1 mph93%30.31 "Hg11 mi
Weather by CustomWeather, © 2014

See weather overviewHow to use our weather pages